Погода в Сонском

Россия / Республика Хакасия     54°09′48″N   90°13′07″E
темп.,
°C
ветер,
м/с
пор.,
м/с
влажн.,
%
обл.,
%
осадки,
мм/ч
давл.,
гПа
погр.,
м
21 января, чт
чт2101:00−23ю12805 0.0 102920
04:00−22ююв227433 0.0 102720
07:00−18ююв127967 0.0 102540
10:00−15ююв2278100 0.1 102279
13:00−11ююв2391100 0.1 1020113
16:00−8юз1487100 0.0 1018108
19:00−11ю1286100 0.0 101824
22:00−12ююз2386100 0.0 101731
22 января, пт
пт2201:00−11ююз3386100 0.0 101458
04:00−10юз1187100 0.0 101123
07:00−9ююв1192100 0.1 100826
10:00−10ю2394100 0.1 100562
13:00−6ююз1392100 0.1 1004127
16:00−7зсз3988100 0.0 1006448
19:00−11зсз1289100 0.0 101033
22:00−11ссз1290100 0.0 101221
23 января, сб
сб2301:00−13ссв1297100 0.1 101621
04:00−14сз0097100 0.3 102120
07:00−14з3679100 0.3 1025141
10:00−18юз358170 0.0 102989
13:00−14юз367881 0.0 1030367
16:00−15ююз3879100 0.0 1031480
19:00−19ю3381100 0.0 103231
22:00−20ююз3484100 0.0 103366
24 января, вс
вс2401:00−20ююз3484100 0.0 103370
04:00−20ююз3484100 0.0 103388
07:00−21ю2384100 0.0 103458
10:00−20ю3386100 0.0 103481
13:00−16юз3873100 0.0 10331035
16:00−16юз2679100 0.0 1032570
19:00−19ююз2486100 0.0 103460
22:00−22з2289100 0.0 103642
25 января, пн
пн2501:00−25з2285100 0.0 103921
04:00−28зюз128181 0.0 104319
07:00−31юз228341 0.0 104519
10:00−31юз22830 0.0 104530
13:00−25з01780 0.0 1043237
16:00−26вюв128777 0.0 1041211
19:00−30ю228974 0.0 104119
22:00−30ююз1186100 0.0 104019